This demonstration page uses our WeatherBlox Daily Observations layout. Learn more.

Left ArrowRight Arrow

Hourly Observations for October 22, 2020

Temp ( °F °C ) Dew Point ( °F °C ) Humidity (%) Winds ( mph kmh ) Pressure ( in mb ) Visibility ( mi km ) Precip ( " mm )
12:09 am 00:09 Cloudy with Mist and Fog 43 6.1 42 5.6 97 97 ESE 10 17 29.97 1015 2 2 0.00 0.00
12:15 am 00:15 Cloudy with Mist and Fog 43 6.1 42 5.6 97 97 ESE 14 22 29.97 1015 3 5 0.00 0.00
12:34 am 00:34 Cloudy with Mist and Fog 43 6.1 42 5.6 97 97 ESE 10 17 29.96 1014 2 3 0.00 0.00
12:50 am 00:50 Mostly Cloudy with Fog 43 6 43 6 100 100 ESE 9 15 29.96 1014 1 1 0.00 0.00
12:53 am 00:53 Mostly Cloudy with Fog 43 6.1 42 5.6 97 97 ESE 13 20 29.93 1013 1 1 0.00 0.00
1:53 am 01:53 Mostly Cloudy with Mist and Fog 43 6.1 42 5.6 97 97 E 10 17 29.90 1013 1 2 0.00 0.00
2:18 am 02:18 Mostly Cloudy with Mist and Fog 44 6.7 43 6.1 96 96 E 7 11 29.90 1013 1 1 0.00 0.00
2:53 am 02:53 Mostly Cloudy with Fog 44 6.7 43 6.1 96 96 E 8 13 29.86 1011 1 1 0.00 0.00
3:22 am 03:22 Cloudy with Mist and Fog 44 6.7 43 6.1 96 96 ESE 10 17 29.86 1011 1 2 0.00 0.00
3:53 am 03:53 Cloudy with Mist and Fog 44 6.7 43 6.1 96 96 E 9 15 29.83 1010 2 2 0.00 0.00
4:53 am 04:53 Cloudy with Mist and Fog 44 6.7 43 6.1 96 96 E 8 13 29.81 1010 2 2 0.00 0.00
5:53 am 05:53 Cloudy with Mist and Fog 45 7.2 44 6.7 97 97 NE 7 11 29.83 1010 2 2 0.00 0.00
6:53 am 06:53 Cloudy with Light Rain 45 7.2 43 6.1 93 93 NNE 9 15 29.84 1010 2 3 0.01 0.25
7:00 am 07:00 Cloudy with Light Rain 45 7.2 43 6.1 93 93 NNE 10 17 29.85 1011 2 3 0.00 0.00
7:27 am 07:27 Cloudy with Mist and Fog 45 7.2 44 6.7 97 97 NNE 12 19 29.84 1010 2 3 0.00 0.00
7:35 am 07:35 Cloudy with Mist and Fog 45 7.2 44 6.7 97 97 NNE 9 15 29.84 1010 2 3 0.00 0.00
7:45 am 07:45 Cloudy with Mist and Fog 45 7.2 44 6.7 97 97 NNE 10 17 29.84 1010 3 4 0.00 0.00
7:53 am 07:53 Cloudy with Mist and Fog 45 7.2 44 6.7 97 97 NNE 10 17 29.83 1010 2 3 0.00 0.00
8:24 am 08:24 Cloudy with Mist and Fog 45 7.2 44 6.7 97 97 NNE 12 19 29.84 1010 2 3 0.00 0.00
8:50 am 08:50 Cloudy with Mist and Fog 45 7 43 6 93 93 NNE 14 22 29.84 1011 2 3 0.00 0.00
8:53 am 08:53 Cloudy with Mist and Fog 44 6.7 43 6.1 96 96 NE 14 22 29.83 1010 2 3 0.00 0.00
9:19 am 09:19 Cloudy with Mist and Fog 44 6.7 42 5.6 93 93 NNE 13 20 29.85 1011 3 5 0.00 0.00
9:53 am 09:53 Cloudy with Mist and Fog 44 6.7 42 5.6 93 93 NNE 15 24 29.84 1011 6 10 0.00 0.00
10:53 am 10:53 Cloudy with Mist and Fog 44 6.7 42 5.6 93 93 NNE 16 26 29.85 1011 3 4 0.00 0.00
11:51 am 11:51 Cloudy with Mist and Fog 43 6 41 5 93 93 NNE 16 26 29.90 1012 4 6 0.00 0.00
11:53 am 11:53 Cloudy with Mist and Fog 43 6.1 41 5 93 93 NNE 17 28 29.89 1012 4 6 0.00 0.00
12:37 pm 12:37 Cloudy with Mist and Fog 40 4.4 39 3.9 97 97 N 17 28 29.95 1014 3 4 0.00 0.00
12:44 pm 12:44 Cloudy with Mist and Fog 40 4.4 38 3.3 93 93 N 18 30 29.94 1014 4 6 0.00 0.00
12:53 pm 12:53 Cloudy with Mist and Fog 40 4.4 38 3.3 93 93 N 16 26 29.90 1013 3 5 0.00 0.00
1:53 pm 13:53 Cloudy 41 5 39 3.9 93 93 N 17 28 29.91 1013 8 13 0.00 0.00
2:28 pm 14:28 Cloudy with Mist and Fog 40 4.4 38 3.3 93 93 N 18 30 29.95 1014 6 10 0.00 0.00
2:53 pm 14:53 Cloudy 40 4.4 37 2.8 89 89 N 20 31 29.95 1014 9 14 0.00 0.00
3:07 pm 15:07 Cloudy 39 3.9 36 2.2 89 89 N 21 33 29.98 1015 7 11 0.00 0.00
3:53 pm 15:53 Cloudy 38 3.3 36 2.2 93 93 N 21 33 29.98 1015 7 11 0.00 0.00
4:53 pm 16:53 Cloudy 38 3.3 34 1.1 86 86 N 28 44 30.00 1016 10 16 0.00 0.00
5:46 pm 17:46 Cloudy 37 2.8 34 1.1 89 89 N 24 39 30.05 1018 10 16 0.00 0.00
5:53 pm 17:53 Cloudy 37 2.8 33 0.6 86 86 N 22 35 30.02 1017 10 16 0.00 0.00
6:05 pm 18:05 Cloudy 37 2.8 33 0.6 86 86 N 22 35 30.06 1018 10 16 0.00 0.00
6:27 pm 18:27 Cloudy 36 2.2 32 0 86 86 N 28 44 30.08 1019 10 16 0.00 0.00
6:45 pm 18:45 Cloudy 36 2.2 32 0 86 86 N 24 39 30.09 1019 10 16 0.00 0.00
6:53 pm 18:53 Cloudy 36 2.2 32 0 86 86 N 25 41 30.05 1018 10 16 0.00 0.00
7:53 pm 19:53 Cloudy 36 2.2 32 0 86 86 N 18 30 30.10 1019 10 16 0.00 0.00
8:37 pm 20:37 Cloudy 35 1.7 31 -0.6 85 85 N 23 37 30.17 1022 10 16 0.00 0.00
8:53 pm 20:53 Cloudy 35 1.7 31 -0.6 85 85 N 23 37 30.14 1021 10 16 0.00 0.00
9:31 pm 21:31 Cloudy 35 1.7 31 -0.6 85 85 N 22 35 30.19 1022 10 16 0.00 0.00
9:53 pm 21:53 Cloudy 35 1.7 31 -0.6 85 85 N 22 35 30.16 1022 10 16 0.00 0.00
10:53 pm 22:53 Cloudy 35 1.7 31 -0.6 85 85 N 20 31 30.17 1022 10 16 0.00 0.00
11:53 pm 23:53 Cloudy 34 1.1 31 -0.6 89 89 N 23 37 30.20 1023 10 16 0.00 0.00

Powered by AerisWeather